SKW4053 KMFE-KAUS

Flight info

Callsign SKW4053
Flight time 0h 47m
Altitude 31000
Route ELIZA V17 LRD HFMAN DXEEE3
Aircraft E75L/M-SDE3GILORVW/S

Departure

Time 2026-04-21 04:06
Airport McAllen Miller International Airport (KMFE)

Arrival

Time 2026-04-21 04:53
Airport Austin Bergstrom International Airport (KAUS)
Time Latitude Longitude Altitude Speed Heading
2026-04-21 03:55 26.18005 -98.23924 98 ft 0 kts 306°
2026-04-21 03:59 26.18000 -98.23917 98 ft 4 kts 306°
2026-04-21 03:59 26.17987 -98.23891 97 ft 4 kts 284°
2026-04-21 04:00 26.17996 -98.23874 98 ft 0 kts 189°
2026-04-21 04:01 26.17993 -98.23875 97 ft 2 kts 189°
2026-04-21 04:02 26.17968 -98.23879 101 ft 5 kts 189°
2026-04-21 04:02 26.17928 -98.23900 98 ft 8 kts 221°
2026-04-21 04:02 26.17891 -98.23950 98 ft 10 kts 231°
2026-04-21 04:02 26.17839 -98.24018 99 ft 12 kts 222°
2026-04-21 04:03 26.17773 -98.24003 101 ft 12 kts 140°
2026-04-21 04:03 26.17690 -98.23926 101 ft 18 kts 140°
2026-04-21 04:03 26.17585 -98.23832 101 ft 20 kts 139°
2026-04-21 04:03 26.17474 -98.23728 103 ft 21 kts 141°
2026-04-21 04:04 26.17359 -98.23626 102 ft 24 kts 142°
2026-04-21 04:04 26.17233 -98.23513 101 ft 18 kts 140°
2026-04-21 04:04 26.17127 -98.23418 101 ft 21 kts 142°
2026-04-21 04:04 26.17009 -98.23316 101 ft 22 kts 139°
2026-04-21 04:05 26.16893 -98.23207 101 ft 18 kts 142°
2026-04-21 04:05 26.16834 -98.23206 103 ft 6 kts 231°
2026-04-21 04:05 26.16812 -98.23243 105 ft 7 kts 256°
2026-04-21 04:05 26.16855 -98.23322 106 ft 28 kts 322°
2026-04-21 04:06 26.17224 -98.23658 109 ft 108 kts 321°
2026-04-21 04:06 26.17973 -98.24344 237 ft 162 kts 322°
2026-04-21 04:06 26.18861 -98.25194 966 ft 177 kts 321°
2026-04-21 04:06 26.20100 -98.25701 1344 ft 212 kts
2026-04-21 04:07 26.21521 -98.25093 2063 ft 227 kts 32°
2026-04-21 04:07 26.22942 -98.24177 2747 ft 255 kts 33°
2026-04-21 04:07 26.24538 -98.23179 3499 ft 266 kts 30°
2026-04-21 04:07 26.26226 -98.22233 4442 ft 277 kts 30°
2026-04-21 04:08 26.28003 -98.21331 5412 ft 287 kts 19°
2026-04-21 04:08 26.30018 -98.21250 6388 ft 299 kts 348°
2026-04-21 04:08 26.31858 -98.22338 7278 ft 302 kts 314°
2026-04-21 04:08 26.33122 -98.24169 8361 ft 296 kts 301°
2026-04-21 04:09 26.34196 -98.26112 9420 ft 293 kts 299°
2026-04-21 04:09 26.35277 -98.28040 10299 ft 296 kts 300°
2026-04-21 04:09 26.36394 -98.30032 10769 ft 310 kts 300°
2026-04-21 04:09 26.37501 -98.32136 11361 ft 318 kts 298°
2026-04-21 04:10 26.38612 -98.34279 12159 ft 319 kts 298°
2026-04-21 04:10 26.39728 -98.36422 13007 ft 320 kts 298°
2026-04-21 04:10 26.40841 -98.38577 13905 ft 321 kts 298°
2026-04-21 04:10 26.41940 -98.40755 14707 ft 324 kts 297°
2026-04-21 04:11 26.43004 -98.42981 15549 ft 326 kts 296°
2026-04-21 04:11 26.44047 -98.45245 16350 ft 330 kts 295°
2026-04-21 04:11 26.45070 -98.47545 17111 ft 333 kts 294°
2026-04-21 04:11 26.46096 -98.49873 17834 ft 337 kts 297°
2026-04-21 04:12 26.47597 -98.51906 18525 ft 345 kts 317°
2026-04-21 04:12 26.49476 -98.53593 19197 ft 348 kts 318°
2026-04-21 04:12 26.51366 -98.55283 19890 ft 349 kts 317°
2026-04-21 04:12 26.53269 -98.56982 20607 ft 351 kts 317°
2026-04-21 04:13 26.55182 -98.58689 21326 ft 353 kts 317°
2026-04-21 04:13 26.57107 -98.60403 22021 ft 355 kts 317°
2026-04-21 04:13 26.59046 -98.62129 22702 ft 358 kts 317°
2026-04-21 04:13 26.61012 -98.63851 23345 ft 362 kts 320°
2026-04-21 04:14 26.63292 -98.65136 23924 ft 372 kts 332°
2026-04-21 04:14 26.65710 -98.66204 24419 ft 376 kts 332°
2026-04-21 04:14 26.68153 -98.67279 24910 ft 379 kts 332°
2026-04-21 04:14 26.70616 -98.68361 25393 ft 382 kts 332°
2026-04-21 04:15 26.73097 -98.69450 25884 ft 385 kts 332°
2026-04-21 04:15 26.75598 -98.70545 26347 ft 388 kts 332°
2026-04-21 04:15 26.78120 -98.71649 26828 ft 391 kts 332°
2026-04-21 04:15 26.80662 -98.72761 27265 ft 394 kts 332°
2026-04-21 04:16 26.83225 -98.73880 27720 ft 397 kts 332°
2026-04-21 04:16 26.85804 -98.75006 28145 ft 400 kts 332°
2026-04-21 04:16 26.88407 -98.76142 28562 ft 403 kts 331°
2026-04-21 04:16 26.91023 -98.77282 28968 ft 406 kts 331°
2026-04-21 04:17 26.93662 -98.78433 29369 ft 408 kts 331°
2026-04-21 04:17 26.96318 -98.79591 29752 ft 411 kts 331°
2026-04-21 04:17 26.98992 -98.80760 30123 ft 414 kts 331°
2026-04-21 04:17 27.01686 -98.81929 30436 ft 417 kts 331°
2026-04-21 04:18 27.04395 -98.83102 30732 ft 419 kts 331°
2026-04-21 04:18 27.07118 -98.84283 31032 ft 420 kts 330°
2026-04-21 04:18 27.09849 -98.85466 31257 ft 424 kts 330°
2026-04-21 04:19 27.15472 -98.87912 31273 ft 441 kts 331°
2026-04-21 04:19 27.21255 -98.90423 31238 ft 450 kts 331°
2026-04-21 04:20 27.27092 -98.92956 31196 ft 450 kts 331°
2026-04-21 04:20 27.32940 -98.95500 31207 ft 451 kts 331°
2026-04-21 04:21 27.38790 -98.98050 31203 ft 451 kts 331°
2026-04-21 04:21 27.44645 -99.00604 31205 ft 451 kts 331°
2026-04-21 04:22 27.50499 -99.03162 31206 ft 451 kts 331°
2026-04-21 04:22 27.56355 -99.05723 31201 ft 451 kts 331°
2026-04-21 04:23 27.62209 -99.08287 31201 ft 451 kts 331°
2026-04-21 04:23 27.68060 -99.10851 31204 ft 451 kts 330°
2026-04-21 04:24 27.73915 -99.13421 31204 ft 451 kts 330°
2026-04-21 04:24 27.79768 -99.15992 31204 ft 451 kts 330°
2026-04-21 04:25 27.85621 -99.18567 31204 ft 451 kts 330°
2026-04-21 04:25 27.90572 -99.20511 31212 ft 462 kts 340°
2026-04-21 04:25 27.93834 -99.20734 31221 ft 481 kts 357°
2026-04-21 04:26 27.97150 -99.19871 31207 ft 500 kts 15°
2026-04-21 04:26 28.03313 -99.16025 31207 ft 509 kts 25°
2026-04-21 04:27 28.09403 -99.11972 31192 ft 508 kts 24°
2026-04-21 04:27 28.15502 -99.07952 31198 ft 507 kts 24°
2026-04-21 04:28 28.21604 -99.03945 31201 ft 506 kts 23°
2026-04-21 04:28 28.27813 -99.00254 31203 ft 503 kts 21°
2026-04-21 04:29 28.34016 -98.96578 31199 ft 503 kts 21°
2026-04-21 04:29 28.40210 -98.92884 31203 ft 502 kts 21°
2026-04-21 04:30 28.46390 -98.89186 31197 ft 502 kts 21°
2026-04-21 04:30 28.52569 -98.85481 31196 ft 502 kts 22°
2026-04-21 04:31 28.58750 -98.81771 31193 ft 502 kts 22°
2026-04-21 04:31 28.64925 -98.78058 31192 ft 502 kts 22°
2026-04-21 04:32 28.71101 -98.74340 31204 ft 502 kts 22°
2026-04-21 04:32 28.77277 -98.70616 31217 ft 502 kts 22°
2026-04-21 04:33 28.83447 -98.66891 31232 ft 502 kts 22°
2026-04-21 04:33 28.89609 -98.63167 31245 ft 501 kts 22°
2026-04-21 04:34 28.95751 -98.59448 31278 ft 497 kts 22°
2026-04-21 04:34 28.98768 -98.57721 31114 ft 465 kts 16°
2026-04-21 04:34 29.01688 -98.56494 30849 ft 430 kts 11°
2026-04-21 04:34 29.04448 -98.55477 30641 ft 411 kts 10°
2026-04-21 04:35 29.07186 -98.54480 30563 ft 415 kts 11°
2026-04-21 04:35 29.12754 -98.52376 30379 ft 432 kts 11°
2026-04-21 04:35 29.15556 -98.51309 30306 ft 415 kts 12°
2026-04-21 04:36 29.18313 -98.50257 29999 ft 430 kts 12°
2026-04-21 04:36 29.21235 -98.49157 29403 ft 451 kts 12°
2026-04-21 04:36 29.24304 -98.47993 28757 ft 475 kts 13°
2026-04-21 04:36 29.27463 -98.46781 28087 ft 481 kts 13°
2026-04-21 04:37 29.30641 -98.45556 27404 ft 481 kts 13°
2026-04-21 04:37 29.33781 -98.44343 26788 ft 469 kts 14°
2026-04-21 04:37 29.36833 -98.43165 26159 ft 458 kts 13°
2026-04-21 04:37 29.39822 -98.42017 25565 ft 449 kts 13°
2026-04-21 04:38 29.42772 -98.40885 24970 ft 445 kts 14°
2026-04-21 04:38 29.45694 -98.39765 24414 ft 441 kts 14°
2026-04-21 04:38 29.48596 -98.38644 23814 ft 438 kts 14°
2026-04-21 04:38 29.51466 -98.37533 23236 ft 432 kts 14°
2026-04-21 04:39 29.54302 -98.36434 22652 ft 429 kts 14°
2026-04-21 04:39 29.57116 -98.35343 22097 ft 425 kts 14°
2026-04-21 04:39 29.59904 -98.34197 21537 ft 428 kts 17°
2026-04-21 04:39 29.62679 -98.32934 20944 ft 431 kts 18°
2026-04-21 04:40 29.65451 -98.31668 20381 ft 424 kts 18°
2026-04-21 04:40 29.68164 -98.30441 19812 ft 415 kts 18°
2026-04-21 04:40 29.70827 -98.29246 19268 ft 407 kts 18°
2026-04-21 04:40 29.73451 -98.28072 18733 ft 402 kts 18°
2026-04-21 04:41 29.76041 -98.26913 18186 ft 398 kts 18°
2026-04-21 04:41 29.78607 -98.25767 17689 ft 394 kts 18°
2026-04-21 04:41 29.81232 -98.24968 17183 ft 388 kts
2026-04-21 04:41 29.83886 -98.24471 16647 ft 385 kts
2026-04-21 04:42 29.86529 -98.24003 16145 ft 382 kts
2026-04-21 04:42 29.89146 -98.23529 15635 ft 380 kts
2026-04-21 04:42 29.91747 -98.23051 15141 ft 377 kts
2026-04-21 04:42 29.94323 -98.22571 14643 ft 374 kts
2026-04-21 04:43 29.96879 -98.22081 14150 ft 371 kts
2026-04-21 04:43 29.99412 -98.21589 13640 ft 367 kts
2026-04-21 04:43 30.01920 -98.21103 13175 ft 365 kts
2026-04-21 04:43 30.04419 -98.20617 12692 ft 363 kts
2026-04-21 04:44 30.06903 -98.20126 12211 ft 361 kts
2026-04-21 04:44 30.09333 -98.19395 11741 ft 361 kts 15°
2026-04-21 04:44 30.11738 -98.18593 11249 ft 359 kts 14°
2026-04-21 04:44 30.14131 -98.17808 10769 ft 356 kts 17°
2026-04-21 04:45 30.16279 -98.16417 10325 ft 356 kts 41°
2026-04-21 04:45 30.17747 -98.14147 9865 ft 353 kts 63°
2026-04-21 04:45 30.18753 -98.11569 9394 ft 350 kts 66°
2026-04-21 04:45 30.19769 -98.09060 8928 ft 339 kts 64°
2026-04-21 04:46 30.20504 -98.06549 8497 ft 325 kts 85°
2026-04-21 04:46 30.20383 -98.04009 8153 ft 309 kts 101°
2026-04-21 04:46 30.19994 -98.01671 7698 ft 302 kts 103°
2026-04-21 04:46 30.19653 -97.99302 7274 ft 296 kts 100°
2026-04-21 04:47 30.19376 -97.96994 6916 ft 286 kts 99°
2026-04-21 04:47 30.18864 -97.94816 6468 ft 277 kts 118°
2026-04-21 04:47 30.17943 -97.92922 6164 ft 265 kts 122°
2026-04-21 04:47 30.17027 -97.91108 5823 ft 257 kts 122°
2026-04-21 04:48 30.16149 -97.89315 5425 ft 254 kts 122°
2026-04-21 04:48 30.15256 -97.87580 5132 ft 249 kts 122°
2026-04-21 04:48 30.14411 -97.85849 4803 ft 246 kts 120°
2026-04-21 04:48 30.13589 -97.84131 4501 ft 242 kts 120°
2026-04-21 04:49 30.12787 -97.82461 4298 ft 234 kts 120°
2026-04-21 04:49 30.12002 -97.80836 4071 ft 229 kts 120°
2026-04-21 04:49 30.11235 -97.79249 3869 ft 223 kts 120°
2026-04-21 04:49 30.10490 -97.77711 3748 ft 215 kts 120°
2026-04-21 04:50 30.09773 -97.76228 3578 ft 210 kts 120°
2026-04-21 04:50 30.09060 -97.74761 3386 ft 208 kts 120°
2026-04-21 04:50 30.08547 -97.73219 3178 ft 206 kts 102°
2026-04-21 04:50 30.08516 -97.71587 2949 ft 203 kts 84°
2026-04-21 04:51 30.08961 -97.70061 2660 ft 200 kts 64°
2026-04-21 04:51 30.09806 -97.68837 2425 ft 193 kts 45°
2026-04-21 04:51 30.10915 -97.68038 2161 ft 183 kts 26°
2026-04-21 04:51 30.12137 -97.67678 1894 ft 180 kts
2026-04-21 04:52 30.13384 -97.67635 1670 ft 179 kts
2026-04-21 04:52 30.14587 -97.67672 1418 ft 165 kts 359°
2026-04-21 04:52 30.15670 -97.67734 1160 ft 150 kts 358°
2026-04-21 04:52 30.16682 -97.67798 925 ft 140 kts 356°
2026-04-21 04:53 30.17619 -97.67842 664 ft 132 kts
2026-04-21 04:53 30.18519 -97.67863 524 ft 118 kts
2026-04-21 04:53 30.19208 -97.67878 526 ft 79 kts 359°
2026-04-21 04:53 30.19621 -97.67888 524 ft 42 kts
2026-04-21 04:54 30.19844 -97.67833 524 ft 25 kts 34°
2026-04-21 04:54 30.19883 -97.67695 525 ft 17 kts 88°
2026-04-21 04:54 30.19888 -97.67567 525 ft 15 kts 89°
2026-04-21 04:54 30.19891 -97.67445 525 ft 15 kts 87°
2026-04-21 04:55 30.19895 -97.67329 525 ft 15 kts 87°
2026-04-21 04:55 30.19898 -97.67216 525 ft 13 kts 83°
2026-04-21 04:55 30.19899 -97.67137 525 ft 10 kts 90°
2026-04-21 04:55 30.19900 -97.67037 525 ft 14 kts 89°
2026-04-21 04:56 30.19901 -97.66921 525 ft 17 kts 89°
2026-04-21 04:56 30.19905 -97.66760 525 ft 21 kts 88°
2026-04-21 04:56 30.19908 -97.66595 525 ft 20 kts 89°
2026-04-21 04:56 30.19911 -97.66440 525 ft 17 kts 86°
2026-04-21 04:57 30.19936 -97.66389 525 ft 4 kts
2026-04-21 04:57 30.19989 -97.66389 525 ft 11 kts
2026-04-21 04:57 30.20030 -97.66326 525 ft 11 kts 76°
2026-04-21 04:57 30.20049 -97.66241 525 ft 11 kts 75°
2026-04-21 04:58 30.20067 -97.66160 525 ft 10 kts 75°
2026-04-21 04:58 30.20090 -97.66106 525 ft 5 kts 31°
2026-04-21 04:58 30.20161 -97.66093 525 ft 15 kts 359°
2026-04-21 04:58 30.20260 -97.66096 525 ft 14 kts 358°
2026-04-21 04:59 30.20342 -97.66116 525 ft 9 kts 304°
2026-04-21 04:59 30.20348 -97.66192 525 ft 10 kts 264°
2026-04-21 04:59 30.20347 -97.66270 525 ft 10 kts 269°
2026-04-21 04:59 30.20346 -97.66345 525 ft 9 kts 269°
2026-04-21 05:00 30.20344 -97.66378 525 ft 1 kts 241°
2026-04-21 05:00 30.20326 -97.66391 525 ft 4 kts 214°
2026-04-21 05:00 30.20286 -97.66422 525 ft 0 kts 214°